GFSSGP_sfc_temp_021.txt.gz
Temp
70 67 67 66 58 53 50 54 58 59 62 64 62 62 63 65 63 61 65 66 67 70 70 74 75 76 76 76 76 76 76 77 78 77 76 76 76 76 75 75 75 75 76 76 74 74 73 73 72
68 70 65 59 52 47 50 55 56 60 64 63 63 63 64 65 66 67 65 66 67 70 70 73 73 75 76 75 75 75 76 77 77 77 76 77 76 75 75 75 75 75 76 75 73 72 71 71 71
69 68 62 54 47 47 50 56 60 62 62 63 63 65 66 67 67 66 66 66 67 69 70 71 72 75 76 75 75 75 75 76 77 76 76 75 75 74 73 73 74 74 74 72 72 71 71 70 70
66 64 58 53 48 52 55 60 61 62 62 61 63 63 66 68 68 67 65 65 66 67 69 70 72 75 75 75 75 75 76 76 77 76 74 73 73 72 72 72 72 72 72 71 71 71 70 69 69
60 58 51 47 48 53 55 58 61 60 61 62 62 63 63 67 63 63 64 64 65 66 67 70 71 73 74 74 74 74 75 76 75 74 73 72 72 71 71 71 71 71 70 70 70 70 68 68 67
57 55 48 45 48 53 56 59 61 60 61 61 61 61 64 64 63 63 62 63 65 65 65 67 68 70 73 74 73 74 74 75 74 73 73 72 71 71 70 70 70 70 70 70 69 68 67 67 66
55 51 47 46 48 51 58 59 59 60 60 62 63 61 66 65 63 60 60 62 63 64 63 65 68 69 69 71 71 73 72 73 72 73 72 70 70 70 70 69 70 70 69 68 68 67 66 66 65
54 53 47 46 48 52 58 58 60 61 63 61 64 62 64 67 57 57 58 60 61 61 63 63 65 66 69 70 67 68 69 70 70 69 68 67 67 67 67 67 68 69 68 67 66 66 65 65 63
57 49 44 49 48 55 58 57 60 61 61 60 62 63 65 55 54 55 56 56 57 58 60 61 62 63 65 65 65 65 66 67 67 66 64 63 63 65 64 63 67 68 66 66 65 64 62 61 60
54 46 49 54 53 55 58 58 60 60 60 58 61 63 58 54 54 55 55 57 56 57 58 59 60 61 61 62 64 65 64 66 64 63 61 60 59 60 60 61 64 65 64 64 63 61 57 54 56
52 50 52 56 57 57 56 55 60 58 57 59 61 65 59 54 53 54 56 58 59 60 59 58 58 59 59 60 60 61 61 61 60 59 57 56 56 58 58 58 57 57 55 57 56 54 54 53 54
50 54 54 57 57 55 55 56 55 57 67 66 64 65 61 57 54 55 56 57 57 56 58 58 57 57 57 58 59 59 58 57 57 56 54 54 53 54 54 54 53 53 52 52 52 52 51 51 51
50 52 55 55 55 55 55 55 55 56 63 62 61 59 60 58 58 56 58 59 57 55 57 57 57 57 57 56 57 57 57 56 56 54 53 53 52 52 52 51 51 51 50 51 51 51 51 51 51
52 52 53 54 55 54 55 59 54 59 59 60 58 59 58 57 60 57 53 56 55 58 57 57 56 57 57 56 55 57 56 55 54 53 53 51 52 51 50 49 49 49 49 49 50 50 50 50 50
51 51 51 51 52 53 51 51 49 62 55 60 60 58 56 58 57 58 63 58 59 59 59 56 56 57 56 56 55 56 55 52 53 53 51 51 50 50 50 48 48 48 48 48 48 48 48 49 49
46 45 43 50 49 50 54 47 59 60 55 58 59 59 59 60 59 60 61 61 60 59 57 57 57 55 56 56 56 56 54 53 53 52 51 50 50 50 48 48 47 47 47 47 48 48 48 49 50
41 39 40 45 50 50 49 47 55 55 54 56 59 63 60 64 68 63 60 61 59 59 59 56 56 55 55 56 56 55 53 53 53 51 51 50 49 48 49 48 47 45 45 46 47 46 48 47 47
39 36 38 41 50 45 44 45 52 57 55 58 60 60 62 63 65 70 64 59 59 58 59 58 54 56 54 55 54 52 50 52 51 50 50 49 49 47 47 46 45 44 44 44 44 45 44 46 47
41 40 39 44 49 44 49 50 51 56 54 56 60 62 61 62 66 66 61 60 56 54 54 55 53 54 53 52 49 49 48 50 48 50 50 49 49 47 47 46 45 44 44 44 44 44 44 43 44
42 42 41 46 50 43 44 47 54 56 57 59 60 61 59 59 63 63 59 57 55 56 53 53 53 53 52 53 53 54 53 51 51 50 49 49 48 47 46 45 44 43 43 42 43 43 42 43 42
39 38 42 41 42 43 40 41 42 51 51 54 58 58 58 58 59 62 58 56 55 53 51 52 53 52 53 54 52 44 46 44 45 45 45 45 46 45 47 45 44 43 44 43 42 43 43 42 40
40 44 43 40 37 34 41 34 40 49 52 51 53 53 54 54 56 56 54 53 53 54 50 50 51 51 51 52 49 49 51 48 48 49 47 46 45 45 46 44 44 43 43 43 42 42 44 43 42
42 43 40 38 35 33 33 32 39 43 49 51 55 54 54 55 52 53 52 52 52 50 48 47 48 49 50 50 50 48 50 50 48 50 45 44 43 44 43 44 43 42 42 42 42 40 41 43 43
43 39 38 33 33 27 36 36 36 42 48 48 55 56 54 53 52 53 51 50 50 46 44 44 45 45 47 48 48 47 48 45 44 43 43 42 41 41 41 42 42 43 42 41 40 41 41 41 42
41 37 29 26 24 28 34 32 40 47 51 51 54 54 53 50 49 50 53 51 48 45 42 43 43 44 45 45 46 46 48 46 45 43 44 41 40 40 40 41 40 41 41 40 40 40 40 40 40
38 41 33 23 22 30 34 32 41 48 52 50 48 50 50 50 49 49 47 46 46 44 43 42 41 42 42 42 43 44 45 46 45 44 45 43 43 43 43 40 42 42 40 39 39 39 39 39 40
38 36 43 33 29 26 34 40 49 48 48 48 48 47 44 42 41 41 42 43 43 43 42 42 41 41 42 41 42 42 43 43 43 41 42 43 43 43 41 41 40 40 39 39 39 39 38 38 39
42 44 34 32 23 23 31 32 38 44 45 45 38 36 38 39 40 40 41 42 42 43 44 44 43 41 42 41 41 42 41 42 43 40 39 40 41 41 40 39 40 39 39 38 38 39 37 37 37
36 35 37 37 34 29 28 31 48 42 34 34 35 36 37 38 39 40 41 42 42 42 42 42 42 41 41 41 40 39 40 40 40 38 39 39 40 39 38 38 38 38 37 37 36 38 36 36 36
41 42 42 34 30 33 34 35 46 35 35 36 34 36 38 38 39 40 40 41 41 41 41 41 41 40 39 40 39 39 39 38 37 38 38 39 38 38 38 37 37 37 37 37 36 36 36 35 34

GFSSGP_sfc_temp_024.txt.gz
Temp
79 83 87 84 71 69 64 66 70 69 71 75 75 74 74 75 74 69 76 79 78 82 82 79 75 77 77 76 76 76 76 77 77 77 77 77 77 77 76 75 75 76 76 76 75 74 73 72 72
84 82 85 80 67 62 68 70 67 72 74 74 74 74 74 75 79 80 78 78 79 82 81 81 73 75 76 76 76 75 76 77 78 77 77 77 76 76 76 75 75 76 76 74 73 72 72 71 71
81 81 78 73 67 64 66 70 73 73 74 74 73 75 76 76 80 80 79 79 78 81 81 81 72 75 76 75 75 75 75 76 77 77 77 76 75 75 74 74 75 75 75 73 72 71 71 71 70
83 83 77 67 64 69 68 75 74 74 73 73 75 73 78 82 80 79 76 79 78 80 80 76 73 75 75 75 75 75 75 76 77 76 76 75 74 74 73 72 73 73 72 72 72 71 70 69 69
83 79 68 63 64 68 72 73 73 72 73 73 73 75 76 79 76 76 76 77 78 79 79 79 72 74 75 75 75 75 75 76 76 76 75 74 72 72 72 72 72 72 71 71 71 70 69 68 68
76 75 65 62 65 69 72 74 72 72 74 73 71 74 78 78 75 77 77 77 80 79 77 78 70 70 72 73 74 74 74 75 75 75 74 73 72 72 71 71 71 71 71 71 70 68 68 67 66
72 70 64 63 64 66 70 72 72 74 73 75 76 73 81 80 77 75 76 78 77 79 76 77 78 75 67 71 71 72 73 73 74 74 73 71 71 71 70 70 70 70 70 69 69 68 67 66 65
75 72 61 64 65 65 72 71 73 74 75 74 77 75 78 80 71 72 72 75 76 76 76 76 77 78 78 77 67 68 70 70 71 71 71 68 68 68 68 67 69 70 69 68 67 67 66 65 63
71 66 62 64 62 70 73 71 73 76 75 73 76 78 83 71 68 70 69 70 71 72 73 75 75 76 77 77 72 65 67 67 68 68 65 64 72 72 70 68 67 69 68 67 66 65 64 62 60
69 64 66 71 72 70 73 71 74 72 75 74 74 80 76 69 70 71 71 73 70 71 71 73 74 74 75 75 75 74 72 70 72 73 71 72 72 72 70 65 64 66 65 65 65 62 58 60 67
66 65 71 70 72 71 70 69 73 72 70 77 77 80 82 73 72 71 75 76 76 75 74 71 72 73 73 73 74 75 74 71 73 72 71 70 69 67 68 69 68 68 62 67 65 61 65 63 66
62 67 69 69 68 67 66 70 69 71 75 82 82 81 80 77 75 73 73 76 76 75 74 73 72 71 72 73 72 73 73 72 71 70 68 67 66 66 67 67 67 65 65 64 62 63 61 61 61
61 67 68 69 65 66 67 66 67 70 77 80 79 75 74 77 77 79 76 76 76 73 73 72 71 71 71 70 72 72 71 70 71 69 67 67 66 64 65 66 65 65 63 63 62 61 61 60 60
66 64 66 67 66 66 63 69 66 72 78 76 76 75 77 75 77 78 76 72 72 73 73 73 71 70 71 69 70 71 71 71 70 68 67 65 66 64 64 64 63 63 62 62 62 62 61 60 59
64 60 66 68 65 64 64 61 62 74 76 72 76 79 78 76 76 75 78 76 74 73 73 72 71 70 69 68 69 70 69 69 68 67 66 64 64 64 63 62 61 62 61 60 60 59 60 60 59
60 59 57 68 60 63 64 60 73 78 72 73 76 79 79 80 81 82 80 78 78 75 73 73 70 68 69 68 69 68 69 68 67 67 66 63 62 64 62 61 61 61 59 60 59 59 58 59 59
59 54 57 59 63 62 59 61 70 71 69 70 73 75 76 77 79 81 82 78 78 78 75 72 70 68 68 68 69 68 67 66 67 67 65 63 61 62 62 61 61 59 58 58 59 58 59 58 58
56 53 54 53 64 59 57 56 65 69 68 67 71 74 76 75 76 79 78 79 77 77 75 74 70 68 67 67 67 67 65 64 66 65 64 63 61 60 60 60 59 57 56 57 57 56 57 59 57
59 55 54 59 64 57 57 59 63 66 66 67 70 72 74 74 78 77 74 74 74 73 71 71 69 67 67 64 63 63 62 61 63 64 62 62 61 59 58 59 58 56 55 55 56 56 53 53 55
55 52 53 59 61 55 57 56 61 65 66 68 69 70 72 73 74 74 72 70 71 70 69 67 67 67 65 65 64 65 64 63 63 62 61 61 59 59 57 57 56 55 55 55 54 53 52 55 54
54 51 53 53 56 56 52 55 56 66 66 67 67 69 69 69 68 69 68 67 66 64 63 63 64 64 64 63 63 62 61 62 60 59 58 57 58 56 56 57 56 54 55 54 53 53 53 51 52
49 59 53 50 48 46 52 44 56 63 63 64 67 66 68 66 65 65 62 61 59 57 58 59 60 61 61 62 60 58 58 57 59 59 58 56 55 56 56 56 55 54 54 54 52 53 54 56 51
51 52 50 48 47 44 49 43 56 55 59 65 66 63 62 60 59 57 57 56 56 54 54 56 57 58 58 59 59 57 56 60 62 60 56 54 53 54 55 55 55 54 53 53 52 51 52 54 56
52 52 50 46 46 39 50 46 50 56 59 62 64 58 56 55 55 54 54 53 52 53 53 53 55 54 55 56 57 56 55 56 56 55 54 53 53 52 53 52 53 53 52 52 51 51 50 51 53
50 47 40 39 38 39 46 43 50 59 60 59 55 51 51 51 51 50 50 50 50 49 50 51 51 51 52 52 53 55 54 55 55 54 53 53 51 50 51 50 49 50 51 52 51 50 50 50 50
45 46 33 27 33 39 45 40 51 60 60 53 50 49 49 49 49 49 49 49 49 49 50 50 49 48 49 50 50 52 52 52 54 55 55 55 53 53 52 50 50 50 50 51 49 49 49 50 49
45 41 49 37 35 30 42 50 57 55 56 49 48 49 47 47 47 47 48 49 49 49 48 49 49 48 48 48 48 49 50 50 51 52 53 53 54 53 52 51 48 50 49 49 48 47 47 47 48
49 51 37 37 26 25 37 41 45 51 50 47 46 45 45 46 47 47 48 47 48 49 49 49 49 47 47 47 47 47 47 47 48 50 49 49 51 51 50 49 48 49 49 48 47 47 47 47 47
41 40 38 35 33 28 28 38 55 50 44 43 42 43 43 44 46 47 47 48 48 49 48 48 47 46 45 45 45 45 46 46 46 46 46 46 48 48 48 48 47 46 46 47 46 46 47 45 45
49 45 45 35 33 38 36 37 47 43 41 41 39 40 42 43 44 46 46 46 45 46 46 46 45 44 43 44 44 43 44 44 44 44 45 45 44 46 45 46 45 45 45 45 44 44 45 44 43

GFSSGP_sfc_temp_030.txt.gz
Temp
74 79 83 75 59 59 56 60 65 67 67 68 71 67 65 68 67 57 70 77 79 78 77 75 75 77 77 76 76 76 77 77 78 77 77 77 76 76 76 76 76 76 76 76 75 74 73 72 72
79 86 76 69 56 53 56 63 65 68 69 69 69 69 66 65 76 72 69 77 79 79 77 76 73 76 76 76 76 75 76 77 78 78 77 77 77 77 76 75 75 75 75 74 74 73 72 72 71
79 85 67 62 59 55 56 65 67 69 72 66 66 68 66 69 76 73 74 78 78 78 77 77 73 75 76 76 75 75 76 76 77 77 77 77 76 76 76 74 74 74 74 73 73 72 71 71 70
78 74 70 57 58 62 63 68 71 70 68 69 68 65 70 76 73 73 77 77 76 77 79 73 74 75 76 75 75 75 75 76 76 77 77 76 76 76 74 74 73 74 73 73 72 72 70 70 69
75 70 58 56 61 62 65 72 68 67 68 68 67 65 68 72 75 75 75 76 74 75 76 72 73 74 75 75 75 75 75 75 76 76 76 78 76 75 73 72 73 73 72 72 72 70 69 68 68
66 67 55 54 60 67 68 71 68 68 67 67 63 64 66 72 72 73 75 73 76 74 74 73 70 71 73 74 74 74 74 75 75 75 76 76 76 75 73 72 73 72 71 71 70 69 68 67 67
62 60 56 57 60 64 68 69 63 67 69 67 69 62 67 67 72 73 71 73 74 75 73 72 70 70 68 70 71 72 73 73 74 74 74 73 73 74 72 71 71 71 71 71 69 68 67 67 66
66 63 57 56 59 61 68 66 67 66 68 69 69 62 58 64 71 68 67 69 72 73 72 71 70 70 69 69 67 69 70 71 71 71 70 69 69 71 69 68 70 71 71 70 68 67 67 66 64
69 55 54 59 60 62 69 64 68 70 65 68 72 68 71 71 71 66 64 67 67 71 71 70 69 71 70 69 68 66 67 68 68 67 66 64 64 66 64 65 68 70 70 69 68 67 66 63 61
61 54 59 68 68 65 69 67 67 66 67 67 69 75 76 68 66 65 64 64 65 66 68 69 69 69 70 74 69 67 67 66 66 67 66 65 64 63 65 62 65 67 66 67 67 66 63 60 53
63 56 66 68 70 68 66 65 69 65 62 67 67 71 72 69 66 66 66 68 67 68 69 69 69 69 68 70 67 68 67 65 69 69 66 66 64 61 59 56 58 56 59 57 59 56 53 53 55
60 66 68 68 69 64 62 67 63 65 66 72 72 73 72 71 71 69 67 68 68 69 70 69 69 68 67 66 66 65 65 63 68 63 66 65 60 58 57 55 56 55 54 53 52 50 52 54 56
61 64 68 68 67 66 67 62 61 65 70 73 74 74 71 71 70 71 72 71 69 69 69 69 70 68 68 66 65 65 64 65 66 62 66 67 59 56 56 56 55 55 54 53 51 51 51 51 53
65 63 63 65 66 67 63 62 59 66 70 71 72 70 70 71 71 70 70 70 70 69 69 69 68 69 68 67 65 66 64 64 65 65 67 63 59 56 56 55 55 54 54 52 51 50 49 49 50
64 56 60 64 65 63 63 55 58 67 69 69 70 69 71 71 73 71 72 71 71 70 69 69 68 68 67 66 65 64 64 64 62 63 62 61 59 57 56 54 53 53 53 52 51 50 50 48 51
57 55 48 62 64 59 60 49 62 68 65 64 67 67 68 70 72 73 72 70 69 69 68 68 70 66 65 64 63 64 63 62 61 61 60 60 60 58 55 53 53 53 51 50 49 48 47 47 47
52 45 50 56 65 59 55 49 62 67 65 63 67 67 66 68 68 66 65 65 67 66 66 66 66 65 64 63 62 62 62 61 61 60 59 59 59 58 55 53 52 52 49 48 49 47 47 45 46
46 49 52 51 59 58 53 51 59 63 63 64 66 65 64 62 61 61 60 60 60 59 62 63 64 63 63 61 60 59 59 59 59 58 58 59 58 57 54 52 52 50 48 47 47 46 46 46 46
52 49 48 54 60 56 55 56 57 61 63 64 64 63 61 59 59 59 57 56 56 57 58 59 59 60 60 57 56 55 55 56 57 57 59 58 57 56 53 51 50 49 50 49 48 46 46 44 45
52 48 47 53 59 54 52 52 58 61 62 63 61 58 57 56 55 55 53 52 52 53 54 56 57 57 58 57 56 56 55 55 56 57 57 58 56 55 53 51 49 48 46 46 48 46 43 43 46
50 48 48 47 51 52 49 45 51 59 60 59 58 56 54 52 51 51 50 49 49 49 51 53 54 55 55 56 55 54 53 52 52 53 53 54 55 53 52 51 49 47 46 46 46 46 47 40 42
45 54 49 48 42 36 47 32 46 56 54 53 52 50 49 49 50 50 49 48 48 48 49 51 52 52 54 53 51 51 49 48 50 51 52 52 53 53 52 51 49 47 46 44 43 46 47 44 42
48 50 47 46 40 38 41 35 43 52 46 48 48 48 48 48 48 47 47 48 48 47 47 48 49 49 50 50 50 48 47 48 49 49 48 49 49 50 50 49 48 47 45 43 43 42 42 45 43
52 46 46 44 41 29 41 39 41 46 47 46 48 48 48 47 47 48 48 47 45 45 44 45 47 47 48 48 47 45 44 44 44 45 44 45 46 46 47 48 46 46 45 43 42 41 41 41 42
45 40 31 29 26 28 42 36 42 51 52 50 46 45 45 45 45 44 45 45 45 44 45 47 45 44 45 44 44 44 43 43 43 43 43 43 43 44 44 45 44 43 44 43 42 40 39 41 42
43 41 30 21 24 28 37 30 42 50 50 49 47 45 45 44 45 45 45 44 43 44 45 46 44 43 43 43 42 43 43 43 43 43 43 43 42 43 45 44 44 44 44 43 41 39 38 39 42
41 36 43 33 29 27 33 41 50 47 45 45 45 44 42 43 43 44 44 44 43 43 44 44 43 41 41 42 43 42 41 41 41 40 40 41 42 45 43 42 42 42 42 41 41 37 37 38 38
43 46 34 35 20 15 30 32 38 43 43 44 41 41 42 43 43 43 43 42 42 42 42 42 42 40 40 40 40 41 40 41 41 39 37 37 39 40 40 39 39 39 40 39 38 37 37 36 36
39 37 38 38 30 23 24 31 45 43 45 43 42 42 41 42 41 42 42 43 43 43 43 42 41 39 38 39 39 38 38 38 38 38 38 37 36 37 37 37 36 37 36 37 36 36 36 36 36
45 42 41 33 29 31 33 33 46 42 42 42 42 42 40 40 40 39 41 42 42 40 40 40 41 39 39 40 39 38 38 36 35 35 35 34 35 35 35 35 35 35 36 35 35 35 36 35 35

GFSSGP_sfc_temp_033.txt.gz
Temp
69 71 66 67 55 52 48 54 57 61 60 62 66 62 60 62 63 55 66 73 72 72 74 74 75 77 77 76 76 76 76 77 77 77 77 77 76 76 77 76 76 76 76 76 75 74 73 72 72
67 76 68 59 50 44 49 56 59 63 65 64 64 63 60 61 68 66 66 74 73 73 74 74 73 76 76 76 76 76 76 77 77 77 77 77 76 76 76 76 75 75 75 74 74 73 72 72 71
72 75 61 54 48 47 49 56 57 63 64 62 61 64 62 64 66 68 69 74 73 72 73 74 73 75 76 76 76 76 76 77 77 77 77 77 77 76 76 75 74 76 75 74 73 72 71 70 70
69 66 61 52 48 54 55 56 61 62 62 64 62 59 66 69 69 69 72 73 71 71 73 72 73 75 76 75 75 75 75 76 77 77 77 76 76 75 75 76 75 75 74 73 72 71 70 69 69
66 59 51 47 51 55 58 63 62 61 61 61 62 60 63 67 68 70 70 72 70 69 72 71 73 74 75 75 75 75 75 76 76 76 76 76 76 75 73 74 74 74 73 72 72 70 69 68 68
59 57 48 45 51 58 58 63 61 60 63 61 59 57 61 64 66 66 69 69 70 70 69 71 70 71 73 74 74 74 74 75 75 75 75 76 76 74 73 72 73 73 72 72 70 69 68 67 67
55 52 46 46 53 58 60 62 59 58 60 60 62 57 59 62 64 68 67 68 69 70 68 69 70 70 69 71 71 72 73 73 74 74 74 74 73 73 73 71 72 72 71 71 69 68 67 67 66
58 54 47 47 51 55 61 62 64 60 63 65 65 58 57 64 68 67 66 66 67 67 67 67 68 69 69 70 68 69 70 71 71 71 70 69 69 70 71 68 70 71 71 70 69 68 67 66 64
61 49 46 51 55 58 64 61 66 66 61 62 66 65 69 65 66 63 61 63 62 67 66 65 66 67 67 67 67 66 67 68 68 67 66 64 64 65 66 64 68 70 70 69 68 67 66 64 62
54 46 51 57 55 56 60 57 58 61 61 60 63 67 66 64 59 61 59 60 61 62 64 65 64 65 66 70 67 65 66 66 65 64 63 62 62 61 62 61 64 67 67 68 68 67 64 59 51
56 50 57 62 62 61 60 60 61 58 56 61 62 66 65 64 62 61 61 60 62 64 64 65 65 64 65 67 65 65 65 63 63 64 66 65 63 59 58 56 58 57 59 57 59 57 52 51 50
52 60 62 62 63 60 59 60 60 58 63 66 66 66 65 67 65 62 62 62 62 62 65 66 65 66 64 66 64 65 65 64 63 67 65 65 63 57 55 54 54 53 52 52 50 49 49 50 52
54 57 61 62 61 61 61 58 58 59 65 65 67 67 66 65 65 66 65 65 64 63 63 64 64 66 67 63 63 63 64 64 64 62 63 66 63 59 54 53 53 52 51 50 48 48 48 49 51
57 57 58 60 61 61 58 57 58 62 63 64 65 64 64 65 65 65 65 66 64 65 65 63 66 66 65 66 62 61 62 62 61 60 61 62 61 60 55 53 53 52 51 50 48 47 47 47 48
58 53 56 58 58 58 58 52 56 62 61 63 63 62 63 65 60 58 59 60 60 62 64 63 64 65 65 62 62 61 61 61 62 61 60 60 60 60 55 53 52 53 51 49 48 47 46 46 48
52 47 44 56 58 57 55 46 59 63 58 62 64 61 62 55 55 55 56 56 56 57 59 62 64 62 61 60 60 61 60 59 59 60 61 59 59 61 57 52 51 51 50 49 47 46 45 44 44
44 40 44 50 57 55 52 47 58 62 61 59 59 59 56 53 53 53 54 53 54 55 56 58 59 59 60 60 59 60 60 59 58 58 57 58 59 58 54 52 51 50 48 47 48 44 44 42 42
41 40 45 45 54 53 49 48 54 58 57 58 54 54 50 50 50 52 52 52 53 53 55 56 58 57 57 57 56 56 56 56 56 56 58 57 58 55 53 51 50 48 46 45 45 45 43 43 42
46 43 42 46 54 49 49 48 53 57 57 57 52 49 49 48 50 51 50 50 50 51 51 52 53 55 55 53 53 53 53 54 54 58 59 58 58 56 52 50 49 47 47 45 45 43 43 42 41
45 42 42 47 52 48 47 48 53 58 51 50 48 47 47 47 47 48 47 47 47 47 48 49 50 52 52 52 52 51 51 51 53 54 56 58 56 56 52 50 48 46 44 44 44 44 40 41 41
45 43 42 44 46 47 43 41 47 48 50 50 49 48 47 45 45 45 45 45 45 45 46 47 48 49 50 51 52 50 50 50 50 50 51 53 54 54 54 52 47 45 45 45 45 43 43 40 40
41 48 47 45 39 34 43 30 42 46 43 45 44 42 42 43 45 45 44 44 44 44 45 46 47 47 49 48 47 45 46 44 46 46 47 48 50 50 51 52 48 45 43 43 42 44 43 41 39
45 47 44 42 37 34 36 31 38 44 40 41 41 42 42 43 43 43 43 44 44 43 43 44 45 46 46 46 45 44 43 43 43 45 44 44 46 48 48 48 47 47 45 42 41 41 39 40 42
49 43 43 39 36 27 36 35 36 41 43 40 42 42 42 42 42 42 43 43 41 41 41 42 43 43 43 44 43 42 41 41 41 41 41 42 42 43 44 46 45 44 43 41 40 40 39 41 40
44 37 29 26 24 26 36 33 40 46 45 43 40 39 40 40 40 40 40 39 40 39 39 41 40 40 41 41 41 41 40 40 40 39 39 39 39 40 42 42 41 42 43 41 40 38 38 38 41
40 39 28 19 23 25 34 30 39 41 43 42 41 40 41 40 40 40 41 40 40 40 39 39 38 39 40 40 39 40 40 40 40 38 38 38 38 39 40 40 39 40 41 41 40 37 36 36 38
39 34 40 31 29 22 29 37 38 41 40 40 39 39 39 41 42 42 40 40 40 40 39 39 38 38 39 40 38 39 39 39 39 36 36 36 37 41 39 38 37 38 38 38 38 36 36 35 35
41 44 31 31 17 16 27 30 33 36 37 39 38 38 39 41 41 41 41 41 40 39 39 39 40 37 37 38 38 38 37 38 38 37 36 34 36 37 37 36 36 37 37 36 35 34 35 34 35
37 35 36 35 30 23 18 27 40 40 40 38 38 40 41 41 42 41 41 41 41 40 38 37 37 37 36 36 36 37 36 36 36 35 35 34 34 34 34 35 35 34 34 34 34 34 34 33 34
42 39 38 31 27 28 28 31 42 41 40 40 40 40 39 39 37 37 37 37 37 37 37 37 37 36 37 38 36 36 36 35 35 34 34 34 34 34 33 34 32 32 32 33 32 32 32 32 32